K9SCH Weather Reports


Display with metric or nautical units.
time (UTC)temp
F
wind
direction
speed
MPH
gust
MPH
rain 1hr
in
rain 24hr
in
rain mn
in
humidity
%
barometer
mb
20210305033040 52 0.0 0.0 0.00 0.00 0.00 47 1021.9
20210305032120 53 0.0 0.0 0.00 0.00 0.00 47 1021.9
20210305031035 53 0.0 0.0 0.00 0.00 0.00 46 1021.7
20210305030054 54 0.0 0.0 0.00 0.00 0.00 45 1021.8
20210305025351 54 0.0 0.0 0.00 0.00 0.00 44 1021.7
20210305024029 55 0.0 0.0 0.00 0.00 0.00 43 1021.4
20210305023025 56 0.0 0.0 0.00 0.00 0.00 42 1021.5
20210305022153 57 0.0 0.0 0.00 0.00 0.00 42 1021.3
20210305021026 58 0.0 0.0 0.00 0.00 0.00 40 1021.4
20210305020132 58 0.0 0.0 0.00 0.00 0.00 39 1021.4
20210305015234 60 0.0 0.0 0.00 0.00 0.00 38 1021.3
20210305014034 61 0.0 1.0 0.00 0.00 0.00 37 1021.5
20210305013114 61 0.0 2.0 0.00 0.00 0.00 36 1021.6
20210305012312 62 0.0 4.0 0.00 0.00 0.00 35 1021.6
20210305011030 63 292 1.0 4.0 0.00 0.00 0.00 35 1021.5
20210305010034 64 0.0 2.0 0.00 0.00 0.00 34 1021.3
20210305005348 63 337 1.0 4.0 0.00 0.00 0.00 34 1021.4
20210305004029 63 292 1.0 5.0 0.00 0.00 0.00 34 1021.3
20210305003101 64 337 2.0 7.0 0.00 0.00 0.00 34 1021.1
20210305002241 64 337 2.0 7.0 0.00 0.00 0.00 33 1020.9
20210305001029 64 315 1.0 4.0 0.00 0.00 0.00 33 1021.0
20210304235434 65 292 3.0 9.0 0.00 0.00 0.00 32 1021.0
20210304234024 64 270 1.0 7.0 0.00 0.00 0.00 33 1020.8
20210304233208 65 337 2.0 6.0 0.00 0.00 0.00 33 1020.8
20210304232450 65 292 3.0 10.0 0.00 0.00 0.00 35 1021.1
20210304231043 65 292 2.0 8.0 0.00 0.00 0.00 35 1021.2
20210304230136 65 292 5.0 12.0 0.00 0.00 0.00 35 1021.4
20210304225258 65 337 4.0 13.0 0.00 0.00 0.00 33 1021.2
20210304224040 65 270 3.0 7.0 0.00 0.00 0.00 36 1021.4
20210304223109 65 292 2.0 6.0 0.00 0.00 0.00 35 1021.5
20210304222150 65 337 2.0 8.0 0.00 0.00 0.00 37 1021.3
20210304221033 65 315 3.0 8.0 0.00 0.00 0.00 37 1021.2
20210304220219 65 270 3.0 10.0 0.00 0.00 0.00 36 1021.1
20210304215627 64 270 1.0 7.0 0.00 0.00 0.00 38 1021.0
20210304214050 64 0.0 3.0 0.00 0.00 0.00 39 1021.0
20210304213039 63 315 1.0 4.0 0.00 0.00 0.00 39 1021.1
20210304212317 62 337 1.0 7.0 0.00 0.00 0.00 40 1021.2
20210304211034 63 292 3.0 10.0 0.00 0.00 0.00 38 1021.4
20210304210024 63 270 6.0 12.0 0.00 0.00 0.00 38 1021.5
20210304205445 62 270 1.0 7.0 0.00 0.00 0.00 38 1021.4
20210304204035 64 315 2.0 6.0 0.00 0.00 0.00 40 1021.6
20210304203406 63 247 2.0 7.0 0.00 0.00 0.00 43 1021.7
20210304202733 63 292 5.0 9.0 0.00 0.00 0.00 42 1021.7
20210304201023 63 270 4.0 10.0 0.00 0.00 0.00 41 1022.0
20210304200253 63 0.0 4.0 0.00 0.00 0.00 41 1022.2
20210304195331 62 270 2.0 7.0 0.00 0.00 0.00 43 1022.3
20210304194031 62 247 3.0 10.0 0.00 0.00 0.00 43 1022.4
20210304193153 62 247 4.0 10.0 0.00 0.00 0.00 43 1022.5
20210304192439 61 337 2.0 5.0 0.00 0.00 0.00 43 1022.4
20210304191042 60 270 5.0 9.0 0.00 0.00 0.00 46 1022.6
20210304190120 61 270 2.0 8.0 0.00 0.00 0.00 45 1022.5
20210304185353 61 270 3.0 9.0 0.00 0.00 0.00 45 1022.6
20210304184034 61 270 3.0 9.0 0.00 0.00 0.00 46 1022.6
20210304183048 60 270 3.0 10.0 0.00 0.00 0.00 47 1022.6
20210304182249 59 270 3.0 9.0 0.00 0.00 0.00 47 1022.8
20210304181047 59 270 4.0 9.0 0.00 0.00 0.00 47 1022.6
20210304180216 59 225 4.0 9.0 0.00 0.00 0.00 47 1022.6
20210304175233 59 247 4.0 12.0 0.00 0.00 0.00 49 1022.6
20210304174030 59 247 4.0 14.0 0.00 0.00 0.00 49 1022.6
20210304173026 58 270 4.0 10.0 0.00 0.00 0.00 50 1022.7
20210304172228 58 270 4.0 10.0 0.00 0.00 0.00 51 1022.8
20210304171027 58 270 4.0 8.0 0.00 0.00 0.00 51 1022.8
20210304170413 58 247 8.0 12.0 0.00 0.00 0.00 51 1022.8
20210304165824 57 247 7.0 14.0 0.00 0.00 0.00 52 1022.6
20210304164115 57 247 4.0 10.0 0.00 0.00 0.00 52 1022.5
20210304163423 58 225 2.0 9.0 0.00 0.00 0.00 51 1022.4
20210304163138 58 225 2.0 7.0 0.00 0.00 0.00 52 1022.4
20210304161111 57 202 2.0 5.0 0.00 0.00 0.00 52 1022.2
20210304160251 56 157 2.0 6.0 0.00 0.00 0.00 53 1022.0
20210304155648 56 180 2.0 5.0 0.00 0.00 0.00 54 1021.7
20210304154054 55 157 3.0 5.0 0.00 0.00 0.00 56 1021.6
20210304153307 55 180 2.0 5.0 0.00 0.00 0.00 57 1021.5
20210304152858 53 157 2.0 7.0 0.00 0.00 0.00 59 1021.4
20210304151020 51 157 2.0 4.0 0.00 0.00 0.00 62 1021.1
20210304150218 50 135 2.0 5.0 0.00 0.00 0.00 64 1021.1
20210304145816 49 135 1.0 4.0 0.00 0.00 0.00 66 1020.7
20210304144044 48 135 1.0 4.0 0.00 0.00 0.00 68 1020.6
20210304143029 47 135 1.0 4.0 0.00 0.00 0.00 69 1020.4
20210304142118 46 0.0 2.0 0.00 0.00 0.00 72 1020.3
20210304141043 45 0.0 2.0 0.00 0.00 0.00 73 1020.1
20210304140023 45 0.0 2.0 0.00 0.00 0.00 73 1020.0
20210304135115 46 135 1.0 3.0 0.00 0.00 0.00 72 1019.8
20210304134027 46 0.0 2.0 0.00 0.00 0.00 72 1019.5
20210304133054 46 202 1.0 3.0 0.00 0.00 0.00 71 1019.5
20210304132455 47 157 2.0 6.0 0.00 0.00 0.00 70 1019.4
20210304131100 47 135 4.0 8.0 0.00 0.00 0.00 70 1019.3
20210304130030 46 135 1.0 4.0 0.00 0.00 0.00 70 1019.2
20210304125216 46 135 1.0 3.0 0.00 0.00 0.00 70 1019.1
20210304124030 47 0.0 3.0 0.00 0.00 0.00 68 1019.2
20210304122703 47 135 1.0 4.0 0.00 0.00 0.00 69 1019.0
20210304121026 47 0.0 2.0 0.00 0.00 0.00 69 1019.3
20210304120223 47 0.0 3.0 0.00 0.00 0.00 69 1019.3
20210304115309 46 0.0 2.0 0.00 0.00 0.00 69 1019.2
20210304114046 47 0.0 1.0 0.00 0.00 0.00 67 1019.3
20210304113134 48 0.0 2.0 0.00 0.00 0.00 66 1019.1
20210304112314 48 0.0 1.0 0.00 0.00 0.00 65 1019.2
20210304111025 48 135 1.0 4.0 0.00 0.00 0.00 66 1019.2
20210304110319 48 135 1.0 4.0 0.00 0.00 0.00 66 1019.0
20210304105610 48 135 1.0 3.0 0.00 0.00 0.00 66 1019.1
20210304104028 48 135 1.0 3.0 0.00 0.00 0.00 66 1019.1
20210304103024 48 135 2.0 4.0 0.00 0.00 0.00 65 1019.1
20210304102252 48 0.0 3.0 0.00 0.00 0.00 65 1019.1
20210304101021 49 157 1.0 4.0 0.00 0.00 0.00 64 1018.9
20210304100036 49 157 1.0 5.0 0.00 0.00 0.00 64 1018.9
20210304095217 49 157 1.0 4.0 0.00 0.00 0.00 64 1018.9
20210304094029 48 135 1.0 2.0 0.00 0.00 0.00 64 1019.0
20210304093123 49 0.0 0.0 0.00 0.00 0.00 63 1019.0
20210304092412 49 0.0 0.0 0.00 0.00 0.00 63 1018.8
20210304091027 49 0.0 0.0 0.00 0.00 0.00 63 1018.6
20210304090030 49 0.0 1.0 0.00 0.00 0.00 63 1018.7
20210304085252 49 0.0 1.0 0.00 0.00 0.00 62 1018.6
20210304084027 49 0.0 1.0 0.00 0.00 0.00 61 1018.7
20210304083039 50 0.0 0.0 0.00 0.00 0.00 60 1018.5
20210304082145 51 0.0 0.0 0.00 0.00 0.00 58 1018.5
20210304081022 52 0.0 2.0 0.00 0.00 0.00 57 1018.4
20210304080032 53 247 3.0 7.0 0.00 0.00 0.00 56 1018.3
20210304075128 53 225 2.0 5.0 0.00 0.00 0.00 56 1018.2
20210304074036 54 202 2.0 6.0 0.00 0.00 0.00 55 1018.0
20210304073026 54 202 4.0 11.0 0.00 0.00 0.00 55 1018.0
20210304072103 53 202 4.0 9.0 0.00 0.00 0.00 55 1017.9
20210304071026 53 225 1.0 4.0 0.00 0.00 0.00 54 1017.6
20210304070031 54 202 2.0 5.0 0.00 0.00 0.00 53 1017.7
20210304065143 54 202 3.0 7.0 0.00 0.00 0.00 53 1017.8
20210304064022 54 202 1.0 4.0 0.00 0.00 0.00 52 1017.9
20210304063146 55 202 2.0 7.0 0.00 0.00 0.00 51 1017.6
20210304062647 55 0.0 1.0 0.00 0.00 0.00 49 1017.6
20210304061041 56 247 2.0 5.0 0.00 0.00 0.00 48 1017.5
20210304060034 57 0.0 3.0 0.00 0.00 0.00 48 1017.4
20210304055222 57 247 2.0 5.0 0.00 0.00 0.00 48 1017.2
20210304054027 57 0.0 2.0 0.00 0.00 0.00 48 1017.2
20210304053027 58 247 3.0 9.0 0.00 0.00 0.00 48 1017.1
20210304052156 57 247 5.0 11.0 0.00 0.00 0.00 48 1017.0
20210304051031 57 247 4.0 7.0 0.00 0.00 0.00 48 1016.7
20210304050030 58 247 8.0 11.0 0.00 0.00 0.00 48 1016.5
20210304045135 58 247 5.0 9.0 0.00 0.00 0.00 47 1016.1
20210304044028 58 247 6.0 10.0 0.00 0.00 0.00 47 1016.0
20210304043050 58 247 4.0 6.0 0.00 0.00 0.00 47 1015.9
20210304042135 58 247 4.0 8.0 0.00 0.00 0.00 47 1015.6
20210304041028 58 247 4.0 7.0 0.00 0.00 0.00 46 1015.3
20210304040059 58 247 6.0 11.0 0.00 0.00 0.00 45 1015.1
20210304035634 59 247 5.0 10.0 0.00 0.00 0.00 44 1014.7
20210304034041 59 247 5.0 10.0 0.00 0.00 0.00 42 1014.3